TimePST,TemperatureF,Dew PointF,Humidity,Sea Level PressureIn,VisibilityMPH,Wind Direction,Wind SpeedMPH,Gust SpeedMPH,PrecipitationIn,Events,Conditions,WindDirDegrees,DateUTC
12:53 AM,41.0,35.1,79,30.08,10.0,Calm,Calm,-,N/A,,Clear,0,2013-02-10 08:53:00
1:53 AM,46.0,36.0,68,30.07,10.0,Calm,Calm,-,N/A,,Clear,0,2013-02-10 09:53:00
2:53 AM,43.0,34.0,71,30.07,10.0,ENE,5.8,-,N/A,,Clear,70,2013-02-10 10:53:00
4:53 AM,37.0,34.0,89,30.06,10.0,Calm,Calm,-,N/A,,Clear,0,2013-02-10 12:53:00
5:53 AM,39.0,34.0,82,30.06,10.0,Calm,Calm,-,N/A,,Clear,0,2013-02-10 13:53:00
6:53 AM,37.0,33.1,86,30.07,10.0,Calm,Calm,-,N/A,,Clear,0,2013-02-10 14:53:00
7:53 AM,41.0,36.0,82,30.09,9.0,Calm,Calm,-,N/A,,Clear,0,2013-02-10 15:53:00
8:53 AM,52.0,37.9,59,30.09,10.0,Calm,Calm,-,N/A,,Clear,0,2013-02-10 16:53:00
9:53 AM,55.9,43.0,62,30.09,9.0,SSW,6.9,-,N/A,,Partly Cloudy,210,2013-02-10 17:53:00
10:53 AM,55.9,43.0,62,30.08,10.0,SSW,8.1,-,N/A,,Scattered Clouds,200,2013-02-10 18:53:00
11:53 AM,57.0,44.1,62,30.06,9.0,South,8.1,-,N/A,,Mostly Cloudy,190,2013-02-10 19:53:00
12:53 PM,55.0,43.0,64,30.04,9.0,WSW,8.1,-,N/A,,Mostly Cloudy,240,2013-02-10 20:53:00
1:53 PM,55.9,43.0,62,30.02,9.0,WSW,8.1,-,N/A,,Mostly Cloudy,250,2013-02-10 21:53:00
2:53 PM,55.9,43.0,62,30.02,10.0,WSW,8.1,-,N/A,,Mostly Cloudy,250,2013-02-10 22:53:00
3:53 PM,55.0,44.1,67,30.02,10.0,West,8.1,-,N/A,,Mostly Cloudy,260,2013-02-10 23:53:00
4:53 PM,53.1,45.0,74,30.02,9.0,West,5.8,-,N/A,,Partly Cloudy,260,2013-02-11 00:53:00
5:53 PM,52.0,45.0,77,30.02,9.0,Calm,Calm,-,N/A,,Scattered Clouds,0,2013-02-11 01:53:00
6:53 PM,50.0,44.1,80,30.02,8.0,East,4.6,-,N/A,,Scattered Clouds,90,2013-02-11 02:53:00
7:53 PM,46.9,42.1,83,30.03,7.0,East,3.5,-,N/A,,Clear,80,2013-02-11 03:53:00
8:53 PM,46.9,42.1,83,30.04,8.0,ENE,4.6,-,N/A,,Clear,60,2013-02-11 04:53:00
9:53 PM,45.0,41.0,86,30.05,9.0,Calm,Calm,-,N/A,,Clear,0,2013-02-11 05:53:00
10:53 PM,43.0,39.0,86,30.06,10.0,Calm,Calm,-,N/A,,Clear,0,2013-02-11 06:53:00
11:53 PM,41.0,37.0,86,30.06,10.0,Calm,Calm,-,N/A,,Clear,0,2013-02-11 07:53:00